FW2530 Weather Reports


time (UTC)temp
F
wind
direction
speed
knots
gust
knots
rain 1hr
in
rain 24hr
in
rain mn
in
humidity
%
barometer
mb
20260510164525 55 360 5.2 11.3 0.00 0.18 0.00 53 1017.0
20260510164004 54 360 6.1 11.3 0.00 0.18 0.00 53 1016.9
20260510163504 54 360 6.1 16.5 0.00 0.18 0.00 51 1016.8
20260510163004 55 360 6.1 13.0 0.00 0.18 0.00 52 1016.7
20260510162504 55 360 5.2 16.5 0.00 0.18 0.00 52 1016.8
20260510162004 55 360 4.3 7.0 0.00 0.18 0.00 55 1016.6
20260510161504 55 360 6.1 11.3 0.00 0.18 0.00 56 1016.6
20260510161004 55 360 5.2 16.5 0.00 0.18 0.00 52 1016.6
20260510160525 55 360 4.3 10.4 0.00 0.18 0.00 55 1016.5
20260510160004 54 360 4.3 11.3 0.00 0.18 0.00 53 1016.5
20260510155525 54 360 4.3 11.3 0.00 0.18 0.00 56 1016.5
20260510155025 54 360 4.3 10.4 0.00 0.18 0.00 55 1016.5
20260510154526 54 360 5.2 13.9 0.00 0.18 0.00 53 1016.5
20260510154025 54 360 4.3 13.0 0.00 0.18 0.00 55 1016.4
20260510153505 54 360 5.2 13.9 0.00 0.18 0.00 55 1016.3
20260510153004 54 360 4.3 13.0 0.00 0.18 0.00 34 1016.3
20260510152504 54 360 4.3 10.4 0.00 0.18 0.00 55 1016.3
20260510152004 54 360 5.2 10.4 0.00 0.18 0.00 55 1016.3
20260510151504 54 360 5.2 13.0 0.00 0.18 0.00 53 1016.2
20260510151004 54 358 5.2 16.5 0.00 0.18 0.00 52 1016.2
20260510150504 54 350 5.2 13.0 0.00 0.18 0.00 53 1016.1
20260510150025 54 353 4.3 11.3 0.00 0.18 0.00 55 1016.0
20260510145525 54 7 4.3 11.3 0.00 0.18 0.00 56 1015.9
20260510145004 54 6 3.5 10.4 0.00 0.18 0.00 55 1015.9
20260510144504 53 348 3.5 9.6 0.00 0.18 0.00 33 1015.9
20260510144025 53 346 2.6 7.8 0.00 0.18 0.00 57 1015.8
20260510143504 53 349 2.6 6.1 0.00 0.18 0.00 58 1015.8
20260510143004 53 345 3.5 9.6 0.00 0.18 0.00 57 1015.7
20260510142504 53 346 3.5 11.3 0.00 0.18 0.00 60 1015.5
20260510142004 52 357 3.5 9.6 0.00 0.18 0.00 62 1015.6
20260510141504 52 7 2.6 9.6 0.00 0.18 0.00 62 1015.5
20260510141025 52 17 2.6 6.1 0.00 0.18 0.00 63 1015.4
20260510140505 51 339 3.5 10.4 0.00 0.18 0.00 63 1015.4
20260510140025 51 316 3.5 10.4 0.00 0.18 0.00 64 1015.4
20260510135504 51 358 3.5 7.0 0.00 0.18 0.00 64 1015.2
20260510135025 50 355 3.5 6.1 0.00 0.18 0.00 64 1015.2
20260510134505 50 339 3.5 6.1 0.00 0.18 0.00 64 1015.1
20260510134004 50 358 3.5 9.6 0.00 0.18 0.00 64 1014.9
20260510133504 49 10 4.3 10.4 0.00 0.18 0.00 64 1014.9
20260510133004 49 1 4.3 11.3 0.00 0.18 0.00 64 1014.9
20260510132504 49 360 3.5 9.6 0.00 0.18 0.00 64 1014.9
20260510132004 49 7 3.5 10.4 0.00 0.18 0.00 66 1014.8
20260510131504 48 10 3.5 7.8 0.00 0.18 0.00 67 1014.8
20260510131004 48 15 5.2 10.4 0.00 0.18 0.00 66 1014.8
20260510130504 48 11 5.2 11.3 0.00 0.18 0.00 67 1014.8
20260510130004 48 10 5.2 10.4 0.00 0.18 0.00 67 1014.6
20260510125504 48 12 5.2 11.3 0.00 0.18 0.00 69 1014.6
20260510125004 47 6 4.3 13.9 0.00 0.18 0.00 69 1014.6
20260510124504 47 357 4.3 9.6 0.00 0.18 0.00 70 1014.5
20260510124004 47 358 5.2 13.9 0.00 0.18 0.00 71 1014.5
20260510123525 46 1 5.2 13.0 0.00 0.18 0.00 71 1014.5
20260510123004 46 3 4.3 10.4 0.00 0.18 0.00 72 1014.4
20260510122526 46 360 4.3 10.4 0.00 0.18 0.00 73 1014.3
20260510122004 46 2 5.2 10.4 0.00 0.18 0.00 74 1014.3
20260510121504 45 5 4.3 10.4 0.00 0.18 0.00 75 1014.3
20260510121004 45 6 3.5 7.8 0.00 0.18 0.00 77 1014.1
20260510120525 44 7 4.3 10.4 0.00 0.18 0.00 77 1014.1
20260510120004 44 8 4.3 13.9 0.00 0.18 0.00 78 1014.0
20260510115504 44 11 4.3 11.3 0.00 0.18 0.00 78 1014.1
20260510115004 43 11 4.3 7.8 0.00 0.18 0.00 79 1014.0
20260510114504 42 10 4.3 7.8 0.00 0.18 0.00 80 1014.0
20260510114025 42 13 3.5 10.4 0.00 0.18 0.00 81 1013.9
20260510113504 41 16 2.6 7.8 0.00 0.18 0.00 83 1013.8
20260510113004 41 14 2.6 6.1 0.00 0.18 0.00 83 1013.6
20260510112504 40 8 2.6 4.3 0.00 0.18 0.00 84 1013.6
20260510112004 40 7 1.7 4.3 0.00 0.18 0.00 85 1013.6
20260510111504 39 7 0.9 3.5 0.00 0.18 0.00 85 1013.5
20260510111004 38 5 0.9 3.5 0.00 0.18 0.00 85 1013.4
20260510110504 38 9 1.7 3.5 0.00 0.18 0.00 85 1013.4
20260510110005 37 9 0.9 6.1 0.00 0.18 0.00 85 1013.3
20260510105525 36 2 0.9 3.5 0.00 0.18 0.00 85 1013.3
20260510105004 36 3 1.7 3.5 0.00 0.18 0.00 86 1013.3
20260510104504 36 10 0.9 3.5 0.00 0.18 0.00 86 1013.2
20260510104004 35 18 0.9 3.5 0.00 0.18 0.00 85 1013.2
20260510103504 35 19 0.0 2.6 0.00 0.18 0.00 85 1013.1
20260510103004 35 19 0.0 0.9 0.00 0.18 0.00 85 1013.1
20260510102504 35 19 0.0 2.6 0.00 0.18 0.00 85 1012.9
20260510102004 35 19 0.0 0.9 0.00 0.18 0.00 85 1012.9
20260510101504 35 19 0.0 2.6 0.00 0.18 0.00 85 1012.7
20260510101004 35 0 0.0 0.0 0.00 0.18 0.00 85 1012.6
20260510100504 35 0 0.0 0.0 0.00 0.18 0.00 85 1012.6
20260510100004 35 0 0.0 0.0 0.00 0.18 0.00 84 1012.5
20260510095504 35 0 0.0 0.0 0.00 0.18 0.00 84 1012.5
20260510095004 35 0 0.0 0.0 0.00 0.18 0.00 84 1012.4
20260510094526 36 0 0.0 0.0 0.00 0.18 0.00 84 1012.3
20260510094004 36 0 0.0 0.0 0.00 0.18 0.00 84 1012.1
20260510093504 36 0 0.0 0.0 0.00 0.18 0.00 83 1012.1
20260510093004 36 0 0.0 0.0 0.00 0.18 0.00 83 1011.9
20260510092504 36 0 0.0 0.0 0.00 0.18 0.00 83 1011.7
20260510092004 36 0 0.0 0.0 0.00 0.18 0.00 83 1011.6
20260510091504 36 0 0.0 0.0 0.00 0.18 0.00 83 1011.6
20260510091004 37 0 0.0 0.0 0.00 0.18 0.00 83 1011.4
20260510090504 37 0 0.0 0.0 0.00 0.18 0.00 82 1011.4
20260510090004 37 0 0.0 0.0 0.00 0.18 0.00 82 1011.2
20260510085504 37 0 0.0 0.0 0.00 0.18 0.00 82 1011.2
20260510085004 38 0 0.0 0.0 0.00 0.18 0.00 82 1011.2
20260510084504 38 0 0.0 0.0 0.00 0.18 0.00 82 1011.0
20260510084004 38 0 0.0 0.0 0.00 0.18 0.00 81 1010.9
20260510083504 38 0 0.0 0.0 0.00 0.18 0.00 81 1010.8
20260510083004 38 0 0.0 0.0 0.00 0.18 0.00 81 1010.7
20260510082504 39 0 0.0 0.0 0.00 0.18 0.00 81 1010.6
20260510082004 39 0 0.0 0.0 0.00 0.18 0.00 81 1010.6
20260510081504 39 0 0.0 0.0 0.00 0.18 0.00 81 1010.4
20260510081004 39 0 0.0 0.0 0.00 0.18 0.00 81 1010.4
20260510080505 40 0 0.0 0.0 0.00 0.18 0.00 80 1010.5
20260510080004 40 0 0.0 0.0 0.00 0.18 0.00 80 1010.4
20260510075525 40 0 0.0 0.0 0.00 0.18 0.00 80 1010.5
20260510075004 40 0 0.0 0.0 0.00 0.18 0.00 80 1010.3
20260510074504 41 0 0.0 0.0 0.00 0.18 0.00 80 1010.2
20260510074025 41 0 0.0 0.0 0.00 0.18 0.00 79 1010.2
20260510073504 41 0 0.0 0.0 0.00 0.18 0.00 79 1010.1
20260510073004 41 0 0.0 0.0 0.00 0.18 0.00 79 1010.1
20260510072504 42 0 0.0 0.0 0.00 0.18 0.00 79 1010.0
20260510072004 42 0 0.0 0.0 0.00 0.18 0.00 78 1009.9
20260510071504 42 0 0.0 0.0 0.00 0.18 0.00 78 1009.9
20260510071004 42 0 0.0 0.0 0.00 0.18 0.00 78 1009.9
20260510070504 42 0 0.0 0.0 0.00 0.18 0.00 77 1009.9
20260510070004 43 21 0.0 0.0 0.00 0.18 0.00 77 1009.9
20260510065504 43 21 0.0 2.6 0.00 0.18 0.00 77 1009.9
20260510065025 43 22 0.9 2.6 0.00 0.18 0.00 77 1009.8
20260510064504 43 22 0.9 2.6 0.00 0.18 0.00 77 1009.8
20260510064004 44 22 0.9 3.5 0.00 0.18 0.00 77 1009.7
20260510063504 44 21 0.9 3.5 0.00 0.18 0.00 75 1009.7
20260510063025 44 20 0.0 2.6 0.00 0.18 0.00 75 1009.5
20260510062504 44 19 0.0 0.0 0.00 0.18 0.00 75 1009.7
20260510062005 44 19 0.9 2.6 0.00 0.18 0.00 75 1009.7
20260510061525 45 19 0.9 2.6 0.00 0.18 0.00 74 1009.8
20260510061004 45 18 1.7 4.3 0.00 0.18 0.00 74 1009.7
20260510060504 45 13 2.6 6.1 0.00 0.18 0.00 74 1009.7
20260510060004 45 15 2.6 6.1 0.00 0.18 0.00 74 1009.7
20260510055504 45 24 2.6 7.0 0.00 0.18 0.00 74 1009.7
20260510055004 45 26 2.6 6.1 0.00 0.18 0.00 73 1009.5
20260510054504 46 22 2.6 6.1 0.00 0.18 0.00 73 1009.4
20260510054004 46 21 3.5 7.8 0.00 0.18 0.00 73 1009.3
20260510053504 46 23 3.5 9.6 0.00 0.18 0.00 72 1009.3
20260510053004 46 23 2.6 7.0 0.00 0.18 0.00 72 1009.2
20260510052504 46 18 1.7 6.1 0.00 0.18 0.00 72 1009.2
20260510052004 46 18 1.7 6.1 0.00 0.18 0.00 71 1009.1
20260510051504 46 26 0.9 3.5 0.00 0.18 0.00 71 1008.9
20260510051004 47 26 0.9 2.6 0.00 0.18 0.00 71 1008.9
20260510050504 47 25 1.7 4.3 0.00 0.18 0.00 71 1008.7
20260510050004 47 25 1.7 4.3 0.00 0.18 0.00 71 1008.9
20260510045504 47 24 1.7 3.5 0.00 0.18 0.00 72 1008.7
20260510045004 47 24 1.7 6.1 0.00 0.18 0.00 72 1008.6
20260510044504 47 26 2.6 6.1 0.00 0.18 0.00 72 1008.5
20260510044004 48 29 1.7 7.0 0.00 0.18 0.00 72 1008.4
20260510043505 48 30 1.7 4.3 0.00 0.18 0.00 73 1008.3
20260510043004 48 30 1.7 3.5 0.00 0.18 0.00 73 1008.2
20260510042504 48 26 1.7 9.6 0.00 0.18 0.00 72 1008.2
20260510042004 48 24 1.7 6.1 0.00 0.18 0.00 72 1008.2
20260510041504 48 24 1.7 3.5 0.00 0.18 0.00 72 1008.0
20260510041004 49 25 0.9 3.5 0.00 0.18 0.00 72 1007.7
20260510040504 49 25 0.0 0.9 0.00 0.18 0.00 71 1007.5
20260510040005 49 24 0.0 3.5 0.00 0.18 0.00 71 1007.4
20260510035525 49 24 0.9 2.6 0.00 0.18 0.18 71 1007.4
20260510035025 49 24 0.9 3.5 0.00 0.18 0.18 71 1007.4
20260510034504 49 24 0.9 3.5 0.00 0.18 0.18 71 1007.4
20260510034004 49 24 0.9 3.5 0.00 0.18 0.18 71 1007.5
20260510033504 50 24 0.9 3.5 0.00 0.18 0.18 71 1007.3
20260510033025 50 24 0.9 3.5 0.00 0.18 0.18 71 1007.2
20260510032525 50 24 0.9 3.5 0.00 0.18 0.18 71 1007.3
20260510032004 50 24 0.9 3.5 0.00 0.18 0.18 71 1007.2
20260510031504 50 22 0.9 3.5 0.00 0.18 0.18 71 1006.9
20260510031004 51 20 1.7 4.3 0.00 0.18 0.18 72 1006.8
20260510030503 51 19 0.9 3.5 0.00 0.18 0.18 72 1007.0
20260510030025 51 19 0.9 3.5 0.00 0.18 0.18 71 1006.8
20260510025503 52 19 0.0 3.5 0.00 0.18 0.18 71 1006.6
20260510025025 52 19 0.0 2.6 0.00 0.18 0.18 71 1006.6
20260510024504 52 19 0.0 0.9 0.00 0.18 0.18 71 1006.5
20260510024004 52 19 0.0 0.9 0.00 0.18 0.18 71 1006.5
20260510023525 53 19 0.0 0.9 0.00 0.18 0.18 71 1006.5
20260510023004 53 19 0.0 0.9 0.00 0.18 0.18 71 1006.5
20260510022525 53 19 0.9 2.6 0.00 0.18 0.18 71 1006.5
20260510022004 53 20 1.7 6.1 0.00 0.18 0.18 71 1006.6
20260510021524 53 23 1.7 4.3 0.00 0.18 0.18 71 1006.2
20260510021003 53 24 2.6 9.6 0.00 0.18 0.18 71 1005.8
20260510020525 53 25 1.7 7.0 0.00 0.18 0.18 71 1005.7
20260510020004 54 25 1.7 4.3 0.00 0.18 0.18 71 1005.6
20260510015504 54 11 2.6 4.3 0.00 0.18 0.18 71 1005.6
20260510015003 54 1 3.5 9.6 0.00 0.18 0.18 71 1005.6
20260510014503 54 360 3.5 7.0 0.00 0.18 0.18 71 1005.5
20260510014003 54 360 2.6 7.0 0.00 0.18 0.18 71 1005.6
20260510013503 54 360 3.5 10.4 0.00 0.18 0.18 71 1005.4
20260510013004 55 360 3.5 11.3 0.00 0.18 0.18 71 1005.1
20260510012524 55 360 2.6 7.0 0.00 0.18 0.18 72 1004.9
20260510012004 55 360 3.5 9.6 0.00 0.18 0.18 74 1004.8
20260510011504 55 360 3.5 11.3 0.00 0.18 0.18 75 1004.7
20260510011025 55 360 2.6 9.6 0.00 0.18 0.18 77 1004.7
20260510010504 56 360 0.9 2.6 0.00 0.18 0.18 79 1004.6
20260510010004 57 360 0.0 2.6 0.00 0.18 0.18 81 1004.3
20260510005525 57 360 0.0 0.9 0.00 0.18 0.18 81 1004.2
20260510005004 57 360 0.0 0.9 0.00 0.18 0.18 81 1004.2
20260510004524 57 360 0.9 0.9 0.00 0.18 0.18 81 1004.1
20260510004003 57 360 1.7 4.3 0.00 0.18 0.18 81 1004.1
20260510003504 57 360 3.5 6.1 0.00 0.18 0.18 81 1004.0
20260510003024 57 360 2.6 13.0 0.00 0.18 0.18 81 1004.0
20260510002503 58 360 0.9 4.3 0.00 0.18 0.18 81 1003.8
20260510002003 58 360 0.0 0.0 0.00 0.18 0.18 81 1003.5
20260510001504 58 358 0.0 2.6 0.00 0.18 0.18 81 1003.3
20260510001004 58 301 0.0 0.9 0.00 0.18 0.18 81 1003.3
20260510000504 58 310 0.0 2.6 0.00 0.18 0.18 81 1003.1
20260510000024 58 264 0.0 0.0 0.00 0.18 0.18 81 1003.1
20260509235503 58 246 0.9 2.6 0.00 0.18 0.18 81 1003.0
20260509235003 58 240 0.9 3.5 0.00 0.18 0.18 81 1003.0
20260509234504 58 241 0.9 2.6 0.00 0.18 0.18 81 1002.9
20260509234003 58 243 1.7 4.3 0.00 0.18 0.18 81 1003.0
20260509233503 58 254 1.7 3.5 0.00 0.18 0.18 80 1002.8
20260509233024 58 265 1.7 3.5 0.00 0.18 0.18 80 1002.8
20260509232503 58 229 3.5 4.3 0.00 0.18 0.18 80 1002.7
20260509232025 58 220 3.5 7.0 0.00 0.18 0.18 80 1002.7
20260509231503 58 217 3.5 6.1 0.00 0.18 0.18 80 1002.8
20260509231024 58 216 2.6 7.0 0.00 0.18 0.18 80 1002.7
20260509230503 59 215 2.6 6.1 0.00 0.18 0.18 79 1002.7
20260509230003 59 215 2.6 6.1 0.00 0.18 0.18 79 1002.6
20260509225503 59 217 1.7 3.5 0.00 0.18 0.18 78 1002.6
20260509225003 59 217 2.6 3.5 0.00 0.18 0.18 77 1002.4
20260509224503 60 216 2.6 6.1 0.00 0.18 0.18 77 1002.4
20260509224004 60 216 2.6 6.1 0.00 0.18 0.18 77 1002.2
20260509223503 60 214 2.6 4.3 0.00 0.18 0.18 77 1002.0
20260509223024 60 207 2.6 6.1 0.00 0.18 0.18 77 1001.9
20260509222503 60 197 3.5 7.0 0.00 0.18 0.18 77 1001.8
20260509222004 59 201 3.5 7.0 0.00 0.18 0.18 77 1001.8
20260509221503 59 210 2.6 7.8 0.00 0.18 0.18 77 1001.7
20260509221003 59 216 4.3 6.1 0.00 0.18 0.18 77 1001.8
20260509220503 59 221 4.3 9.6 0.00 0.18 0.18 77 1001.6
20260509220003 59 216 3.5 7.0 0.00 0.18 0.18 77 1001.6
20260509215503 58 206 3.5 7.8 0.00 0.18 0.18 77 1001.5
20260509215003 58 211 5.2 7.8 0.00 0.18 0.18 77 1001.5
20260509214504 58 216 6.1 11.3 0.00 0.18 0.18 77 1001.5
20260509214025 58 216 4.3 10.4 0.00 0.18 0.18 78 1001.6
20260509213504 58 218 3.5 7.8 0.00 0.18 0.18 79 1001.6
20260509213004 57 219 3.5 7.0 0.01 0.18 0.18 80 1001.9
20260509212503 56 276 2.6 7.8 0.02 0.18 0.18 81 1001.8
20260509212024 56 340 1.7 4.3 0.02 0.18 0.18 82 1001.9
20260509211503 55 344 1.7 4.3 0.15 0.18 0.18 82 1002.0
20260509211003 55 349 1.7 6.1 0.18 0.18 0.18 82 1002.0
20260509210524 55 346 1.7 7.0 0.18 0.18 0.18 83 1001.9
20260509210024 54 333 1.7 6.1 0.18 0.18 0.18 83 1002.1
20260509205503 54 348 2.6 7.8 0.18 0.18 0.18 84 1002.0
20260509205024 54 336 2.6 6.1 0.18 0.18 0.18 84 1002.0
20260509204504 53 316 1.7 7.0 0.18 0.18 0.18 85 1002.1
20260509204003 53 350 1.7 3.5 0.18 0.18 0.18 84 1002.1
20260509203503 53 303 3.5 7.0 0.18 0.18 0.18 83 1002.1
20260509203003 54 308 5.2 11.3 0.17 0.17 0.17 82 1002.3
20260509202524 56 349 7.0 16.5 0.17 0.17 0.17 81 1002.4
20260509202003 58 360 8.7 18.2 0.16 0.16 0.16 79 1002.4
20260509201503 61 341 7.0 24.3 0.03 0.03 0.03 78 1002.7
20260509201003 61 282 5.2 13.0 0.00 0.00 0.00 77 1002.0
20260509200503 61 254 5.2 16.5 0.00 0.00 0.00 75 1001.5
20260509200004 61 221 5.2 13.0 0.00 0.00 0.00 74 1001.4
20260509195525 61 230 4.3 11.3 0.00 0.00 0.00 74 1001.3
20260509195024 61 326 4.3 13.0 0.00 0.00 0.00 74 1001.3
20260509194503 61 252 4.3 17.4 0.00 0.00 0.00 74 1001.3
20260509194003 61 279 4.3 13.9 0.00 0.00 0.00 74 1001.2
20260509193503 61 264 6.1 17.4 0.00 0.00 0.00 74 1001.3
20260509193004 61 275 8.7 14.8 0.00 0.00 0.00 74 1001.4
20260509192503 62 353 10.4 17.4 0.00 0.00 0.00 74 1001.3
20260509192025 62 358 9.6 25.2 0.00 0.00 0.00 73 1001.2
20260509191524 62 360 6.1 18.2 0.00 0.00 0.00 73 1001.3
20260509191003 62 360 6.1 10.4 0.00 0.00 0.00 73 1001.6
20260509190503 62 360 8.7 17.4 0.00 0.00 0.00 73 1001.7
20260509190003 62 360 8.7 25.2 0.00 0.00 0.00 73 1001.6
20260509185503 62 360 8.7 17.4 0.00 0.00 0.00 73 1001.7
20260509185003 62 360 9.6 18.2 0.00 0.00 0.00 75 1001.5
20260509184503 62 348 10.4 17.4 0.00 0.00 0.00 77 1001.5
20260509184003 62 226 9.6 18.2 0.00 0.00 0.00 77 1001.6
20260509183503 62 212 9.6 16.5 0.00 0.00 0.00 75 1001.6
20260509183003 62 212 8.7 20.9 0.00 0.00 0.00 75 1001.7
20260509182503 62 211 7.8 23.5 0.00 0.00 0.00 75 1001.8
20260509182003 62 214 7.8 20.0 0.00 0.00 0.00 74 1001.8
20260509181503 62 216 7.0 14.8 0.00 0.00 0.00 75 1001.8
20260509181003 62 216 7.0 13.0 0.00 0.00 0.00 77 1001.9
20260509180503 62 221 6.1 13.0 0.00 0.00 0.00 77 1002.1
20260509180003 62 219 6.1 11.3 0.00 0.00 0.00 75 1002.1
20260509175503 62 213 5.2 13.9 0.00 0.00 0.00 74 1002.4
20260509175003 62 351 6.1 7.0 0.00 0.00 0.00 74 1002.6
20260509174524 62 357 8.7 20.0 0.00 0.00 0.00 74 1002.4
20260509174003 63 240 9.6 20.9 0.00 0.00 0.00 71 1002.0
20260509173503 64 212 9.6 24.3 0.00 0.00 0.00 70 1001.8
20260509173003 65 199 9.6 20.9 0.00 0.00 0.00 72 1001.9
20260509172503 65 196 10.4 23.5 0.00 0.00 0.00 73 1001.8
20260509172003 65 208 10.4 17.4 0.00 0.00 0.00 74 1001.8
20260509171503 65 214 9.6 18.2 0.00 0.00 0.00 74 1001.9
20260509171003 64 202 8.7 16.5 0.00 0.00 0.00 75 1002.1
20260509170504 65 196 8.7 16.5 0.00 0.00 0.00 73 1002.3
20260509170003 65 198 7.8 17.4 0.00 0.00 0.00 73 1002.4
20260509165504 66 192 8.7 13.9 0.00 0.00 0.00 73 1002.4
20260509165024 65 184 9.6 16.5 0.00 0.00 0.00 52 1002.3